Time,TemperatureF,DewpointF,PressureIn,WindDirection,WindDirectionDegrees,WindSpeedMPH,WindSpeedGustMPH,Humidity,HourlyPrecipIn,Conditions,Clouds,dailyrainin,SoftwareType,DateUTC
2013-04-17 00:03:00,51.0,48.0,-100.00,ENE,72,0.0,14.0,94,0.00,,,-99.99,,2013-04-17 04:03:00,
2013-04-17 00:13:00,51.0,48.0,-100.00,NE,55,1.0,14.0,94,0.00,,,-99.99,,2013-04-17 04:13:00,
2013-04-17 00:23:00,52.0,48.0,-100.00,East,88,1.0,14.0,93,0.00,,,-99.99,,2013-04-17 04:23:00,
2013-04-17 00:33:00,51.0,48.0,-100.00,East,97,1.0,1.0,93,0.00,,,-99.99,,2013-04-17 04:33:00,
2013-04-17 00:42:00,51.0,48.0,-100.00,SE,132,0.0,1.0,94,0.00,,,-99.99,,2013-04-17 04:42:00,
2013-04-17 00:52:00,51.0,48.0,-100.00,ESE,108,1.0,1.0,94,0.00,,,-99.99,,2013-04-17 04:52:00,
2013-04-17 01:03:00,51.0,48.0,-100.00,SE,127,0.0,1.0,94,0.00,,,-99.99,,2013-04-17 05:03:00,
2013-04-17 01:12:00,51.0,48.0,-100.00,South,182,0.0,1.0,93,0.00,,,-99.99,,2013-04-17 05:12:00,
2013-04-17 01:22:00,52.0,48.0,-100.00,ENE,63,0.0,1.0,93,0.00,,,-99.99,,2013-04-17 05:22:00,
2013-04-17 01:32:00,52.0,48.0,-100.00,ENE,63,0.0,1.0,93,0.00,,,-99.99,,2013-04-17 05:32:00,
2013-04-17 01:43:00,52.0,48.0,-100.00,ENE,63,0.0,1.0,93,0.00,,,-99.99,,2013-04-17 05:43:00,
2013-04-17 01:52:00,52.0,48.0,-100.00,ENE,63,0.0,1.0,93,0.00,,,-99.99,,2013-04-17 05:52:00,
2013-04-17 11:53:00,52.0,36.0,-100.00,NNE,16,47.0,-999.0,56,0.00,,,-99.99,,2013-04-17 15:53:00,
2013-04-17 12:03:00,52.0,34.0,-100.00,NE,40,14.0,-999.0,51,0.00,,,-99.99,,2013-04-17 16:03:00,
2013-04-17 12:12:00,53.0,36.0,-100.00,East,84,6.0,-999.0,53,0.00,,,-99.99,,2013-04-17 16:12:00,
2013-04-17 12:23:00,53.0,34.0,-100.00,SE,139,5.0,-999.0,51,0.00,,,-99.99,,2013-04-17 16:23:00,
2013-04-17 12:32:00,54.0,36.0,-100.00,NE,39,2.0,-999.0,53,0.00,,,-99.99,,2013-04-17 16:32:00,
2013-04-17 12:42:00,55.0,36.0,-100.00,East,86,3.0,-999.0,50,0.00,,,-99.99,,2013-04-17 16:42:00,
2013-04-17 12:52:00,56.0,37.0,-100.00,East,101,2.0,-999.0,50,0.00,,,-99.99,,2013-04-17 16:52:00,
2013-04-17 13:02:00,56.0,37.0,-100.00,East,87,4.0,-999.0,53,0.00,,,-99.99,,2013-04-17 17:02:00,
2013-04-17 13:12:00,56.0,37.0,-100.00,NE,45,5.0,-999.0,50,0.00,,,-99.99,,2013-04-17 17:12:00,
2013-04-17 13:22:00,57.0,37.0,-100.00,NE,56,3.0,-999.0,50,0.00,,,-99.99,,2013-04-17 17:22:00,
2013-04-17 13:33:00,57.0,37.0,-100.00,East,87,3.0,-999.0,49,0.00,,,-99.99,,2013-04-17 17:33:00,
2013-04-17 13:42:00,57.0,37.0,-100.00,ENE,77,3.0,-999.0,51,0.00,,,-99.99,,2013-04-17 17:42:00,
2013-04-17 13:52:00,57.0,39.0,-100.00,North,360,3.0,-999.0,53,0.00,,,-99.99,,2013-04-17 17:52:00,
2013-04-17 14:02:00,57.0,37.0,-100.00,North,9,3.0,-999.0,51,0.00,,,-99.99,,2013-04-17 18:02:00,
2013-04-17 14:12:00,57.0,39.0,-100.00,NE,50,5.0,-999.0,53,0.00,,,-99.99,,2013-04-17 18:12:00,
2013-04-17 14:22:00,58.0,37.0,-100.00,NE,40,4.0,-999.0,49,0.00,,,-99.99,,2013-04-17 18:22:00,
2013-04-17 14:32:00,57.0,36.0,-100.00,North,360,5.0,-999.0,45,0.00,,,-99.99,,2013-04-17 18:32:00,
2013-04-17 14:42:00,57.0,36.0,-100.00,NNE,21,6.0,-999.0,45,0.00,,,-99.99,,2013-04-17 18:42:00,
2013-04-17 14:52:00,57.0,36.0,-100.00,ENE,74,4.0,-999.0,47,0.00,,,-99.99,,2013-04-17 18:52:00,
2013-04-17 15:02:00,57.0,36.0,-100.00,NNE,22,5.0,-999.0,46,0.00,,,-99.99,,2013-04-17 19:02:00,
2013-04-17 15:12:00,58.0,36.0,-100.00,NNE,16,6.0,-999.0,45,0.00,,,-99.99,,2013-04-17 19:12:00,
2013-04-17 15:22:00,57.0,34.0,-100.00,NE,56,6.0,-999.0,42,0.00,,,-99.99,,2013-04-17 19:22:00,
2013-04-17 15:32:00,57.0,36.0,-100.00,NE,35,5.0,-999.0,46,0.00,,,-99.99,,2013-04-17 19:32:00,
2013-04-17 15:42:00,57.0,36.0,-100.00,NNE,25,6.0,-999.0,46,0.00,,,-99.99,,2013-04-17 19:42:00,
2013-04-17 15:52:00,57.0,36.0,-100.00,NNE,21,5.0,-999.0,45,0.00,,,-99.99,,2013-04-17 19:52:00,
2013-04-17 16:03:00,58.0,36.0,-100.00,NE,49,6.0,-999.0,45,0.00,,,-99.99,,2013-04-17 20:03:00,
2013-04-17 16:12:00,58.0,36.0,-100.00,ENE,70,5.0,-999.0,45,0.00,,,-99.99,,2013-04-17 20:12:00,
2013-04-17 16:22:00,57.0,34.0,-100.00,NNE,12,4.0,-999.0,42,0.00,,,-99.99,,2013-04-17 20:22:00,
2013-04-17 16:33:00,57.0,32.0,-100.00,ESE,105,5.0,-999.0,41,0.00,,,-99.99,,2013-04-17 20:33:00,
2013-04-17 16:42:00,56.0,32.0,-100.00,NE,49,6.0,-999.0,42,0.00,,,-99.99,,2013-04-17 20:42:00,
2013-04-17 16:52:00,56.0,32.0,-100.00,NNE,26,5.0,-999.0,41,0.00,,,-99.99,,2013-04-17 20:52:00,
2013-04-17 17:03:00,56.0,32.0,-100.00,ENE,63,4.0,-999.0,42,0.00,,,-99.99,,2013-04-17 21:03:00,
2013-04-17 17:12:00,56.0,32.0,-100.00,NNE,26,6.0,-999.0,41,0.00,,,-99.99,,2013-04-17 21:12:00,
2013-04-17 17:22:00,56.0,32.0,-100.00,NE,35,6.0,-999.0,40,0.00,,,-99.99,,2013-04-17 21:22:00,
2013-04-17 17:33:00,56.0,32.0,-100.00,NNE,32,6.0,-999.0,42,0.00,,,-99.99,,2013-04-17 21:33:00,
2013-04-17 17:43:00,56.0,32.0,-100.00,NE,42,5.0,-999.0,41,0.00,,,-99.99,,2013-04-17 21:43:00,
2013-04-17 17:53:00,55.0,32.0,-100.00,NE,39,6.0,-999.0,40,0.00,,,-99.99,,2013-04-17 21:53:00,
2013-04-17 18:02:00,55.0,32.0,-100.00,NE,50,4.0,-999.0,41,0.00,,,-99.99,,2013-04-17 22:02:00,
2013-04-17 18:13:00,54.0,32.0,-100.00,NE,52,5.0,-999.0,40,0.00,,,-99.99,,2013-04-17 22:13:00,
2013-04-17 18:22:00,53.0,32.0,-100.00,NE,52,6.0,-999.0,42,0.00,,,-99.99,,2013-04-17 22:22:00,
2013-04-17 18:33:00,53.0,30.0,-100.00,NE,55,5.0,-999.0,41,0.00,,,-99.99,,2013-04-17 22:33:00,
2013-04-17 18:42:00,52.0,30.0,-100.00,NE,42,4.0,-999.0,41,0.00,,,-99.99,,2013-04-17 22:42:00,
2013-04-17 18:53:00,51.0,28.0,-100.00,ENE,60,3.0,-999.0,40,0.00,,,-99.99,,2013-04-17 22:53:00,
2013-04-17 19:02:00,50.0,28.0,-100.00,NE,42,3.0,-999.0,40,0.00,,,-99.99,,2013-04-17 23:02:00,
2013-04-17 19:12:00,50.0,28.0,-100.00,NE,49,3.0,-999.0,42,0.00,,,-99.99,,2013-04-17 23:12:00,
2013-04-17 19:22:00,51.0,28.0,-100.00,ENE,72,3.0,-999.0,40,0.00,,,-99.99,,2013-04-17 23:22:00,
2013-04-17 19:32:00,51.0,28.0,-100.00,ENE,76,4.0,-999.0,40,0.00,,,-99.99,,2013-04-17 23:32:00,
2013-04-17 19:42:00,52.0,28.0,-100.00,NE,43,4.0,-999.0,40,0.00,,,-99.99,,2013-04-17 23:42:00,
2013-04-17 19:52:00,52.0,28.0,-100.00,ENE,70,4.0,-999.0,40,0.00,,,-99.99,,2013-04-17 23:52:00,
2013-04-17 20:02:00,52.0,28.0,-100.00,ENE,69,4.0,-999.0,40,0.00,,,-99.99,,2013-04-18 00:02:00,
2013-04-17 20:12:00,52.0,28.0,-100.00,ENE,76,3.0,-999.0,40,0.00,,,-99.99,,2013-04-18 00:12:00,
2013-04-17 20:22:00,52.0,30.0,-100.00,SSE,155,3.0,-999.0,41,0.00,,,-99.99,,2013-04-18 00:22:00,
2013-04-17 20:32:00,53.0,30.0,-100.00,ESE,103,1.0,-999.0,41,0.00,,,-99.99,,2013-04-18 00:32:00,
2013-04-17 20:42:00,53.0,30.0,-100.00,ENE,64,1.0,-999.0,42,0.00,,,-99.99,,2013-04-18 00:42:00,
2013-04-17 20:52:00,52.0,32.0,-100.00,ENE,63,2.0,-999.0,46,0.00,,,-99.99,,2013-04-18 00:52:00,
2013-04-17 21:02:00,53.0,32.0,-100.00,ENE,73,1.0,-999.0,44,0.00,,,-99.99,,2013-04-18 01:02:00,
2013-04-17 21:12:00,52.0,32.0,-100.00,SE,127,2.0,-999.0,46,0.00,,,-99.99,,2013-04-18 01:12:00,
2013-04-17 21:22:00,52.0,32.0,-100.00,NE,53,1.0,-999.0,47,0.00,,,-99.99,,2013-04-18 01:22:00,
2013-04-17 21:32:00,53.0,32.0,-100.00,ENE,77,2.0,-999.0,47,0.00,,,-99.99,,2013-04-18 01:32:00,
2013-04-17 21:42:00,52.0,32.0,-100.00,ESE,111,1.0,-999.0,49,0.00,,,-99.99,,2013-04-18 01:42:00,
2013-04-17 21:52:00,50.0,32.0,-100.00,ESE,107,1.0,-999.0,51,0.00,,,-99.99,,2013-04-18 01:52:00,
2013-04-17 22:02:00,52.0,34.0,-100.00,East,101,1.0,-999.0,51,0.00,,,-99.99,,2013-04-18 02:02:00,
2013-04-17 22:12:00,51.0,34.0,-100.00,East,100,1.0,-999.0,53,0.00,,,-99.99,,2013-04-18 02:12:00,
2013-04-17 22:22:00,52.0,34.0,-100.00,NE,36,0.0,-999.0,50,0.00,,,-99.99,,2013-04-18 02:22:00,
2013-04-17 22:32:00,52.0,34.0,-100.00,South,189,0.0,-999.0,51,0.00,,,-99.99,,2013-04-18 02:32:00,
2013-04-17 22:42:00,52.0,34.0,-100.00,South,189,0.0,-999.0,51,0.00,,,-99.99,,2013-04-18 02:42:00,
2013-04-17 22:52:00,52.0,34.0,-100.00,South,189,0.0,-999.0,51,0.00,,,-99.99,,2013-04-18 02:52:00,
2013-04-17 23:02:00,52.0,34.0,-100.00,NNW,345,1.0,-999.0,51,0.00,,,-99.99,,2013-04-18 03:02:00,
2013-04-17 23:12:00,54.0,34.0,-100.00,SE,136,0.0,-999.0,50,0.00,,,-99.99,,2013-04-18 03:12:00,
2013-04-17 23:22:00,54.0,36.0,-100.00,South,176,0.0,-999.0,51,0.00,,,-99.99,,2013-04-18 03:22:00,
2013-04-17 23:33:00,54.0,36.0,-100.00,East,90,0.0,-999.0,51,0.00,,,-99.99,,2013-04-18 03:33:00,
2013-04-17 23:43:00,54.0,36.0,-100.00,SW,228,0.0,-999.0,50,0.00,,,-99.99,,2013-04-18 03:43:00,
2013-04-17 23:53:00,55.0,37.0,-100.00,SSE,168,0.0,-999.0,53,0.00,,,-99.99,,2013-04-18 03:53:00,